Tracking 30918 objects as of 2-Jul-2025
HD Live streaming from Space Station
objects crossing your sky now

COSMOS 1275 DEB

Track COSMOS 1275 DEB now!
10-day predictions


NORAD ID: 12706
Int'l Code: 1981-053BA
Perigee: 893.3 km
Apogee: 1,046.5 km
Inclination: 82.9 °
Period: 104.3 minutes
Semi major axis: 7340 km
RCS: 0.0482 m2 (small)
Launch date: June 4, 1981
Source: Commonwealth of Independent States (former USSR) (CIS)
Launch site: PLESETSK MISSILE AND SPACE COMPLEX (PKMTR)

Note: This is SATELLITE DEBRIS
Your satellite tracking list
STARLINK-4351
Track 1 satellite(s)




NASA's NSSDC Master Catalog

Two Line Element Set (TLE):
1 12706U 81053BA  25182.53934186  .00001036  00000-0  94037-3 0  9996
2 12706  82.8808 204.7841 0104366 302.3153 212.0941 13.80324617190694
Source of the keplerian elements: AFSPC